Location: Asheville, NC
(35.6000°N, 82.5500°W)
Time: 03:47:29
(UTC-05:00)

SO-50 - Visible Passes

Search period start: 21 January 2018 00:00
Search period end: 31 January 2018 00:00
Orbit: 610 x 677 km, 64.6° (Epoch: 20 January)

Date Brightness Start Highest point End Pass type
(mag) Time Alt. Az. Time Alt. Az. Time Alt. Az.
21 Jan ? 04:46:35 22° E 04:46:35 22° E 04:49:24 10° ENE visible
21 Jan ? 06:24:21 23° W 06:26:09 31° NW 06:30:10 10° N visible
22 Jan ? 05:12:39 34° NE 05:12:39 34° NE 05:15:19 10° NE visible
22 Jan ? 06:50:23 12° WNW 06:51:46 14° NW 06:54:08 10° NNW visible
23 Jan ? 05:38:16 26° N 05:38:16 26° N 05:40:27 10° NNE visible
24 Jan ? 06:03:34 15° NNW 06:03:34 15° NNW 06:04:54 10° N visible
